Regional Weather Roundup
Issued by NWS

Home | Current Version | Previous Version | Graphics & Text | Print | Product List | Glossary On
Versions: 1 2 3 4 5 6 7 8 9 10 11 12 13 14 15 16 17 18 19 20 21 22 23 24 25 26 27 28 29 30 31 32 33 34 35 36 37 38 39 40 41 42 43 44 45 46 47 48 49 50
006
ASUS43 KIND 271559
RWRIN

WEATHER ROUNDUP FOR INDIANA
NATIONAL WEATHER SERVICE INDIANAPOLIS IN
1200 PM EDT THU APR 27 2017

NOTE: "FAIR" INDICATES FEW OR NO CLOUDS BELOW 12,000 FEET WITH NO
SIGNIFICANT WEATHER AND/OR OBSTRUCTIONS TO VISIBILITY.

* - STATION DOES NOT REPORT WEATHER SUCH AS PRECIPITATION OR FOG.

+ - STATION NOT QUALITY CONTROLLED BY THE NATIONAL WEATHER SERVICE.
    USE DATA WITH CAUTION...ESPECIALLY DEWPOINT AND RELATIVE
    HUMIDITY OBSERVATIONS.

INZ001>003-010>013-019-020-271700-
NORTHWEST INDIANA

CITY           SKY/WX    TMP DP  RH WIND       PRES   REMARKS
GARY /AIRPORT/ CLOUDY    48  41  76 W17G29    29.57R
KNOX *+        CLOUDY    46  30  53 SW18G28   29.58R
MICHIGAN CITY+ CLOUDY    50  41  71 SW17G26   29.57R
MONTICELLO +   CLOUDY    49  43  80 W16G26    29.62R
RENSSELAER +   CLOUDY    48  43  81 SW23      29.61R

$$

LMZ046-743>745-271700-
SOUTHERN LAKE MICHIGAN

STATION/POSITION TIME  TEMP    WIND        PRES    WAVE
                       AIR SEA DIR/SP/G            HT
                 (UTC) (F)     (DEG/KT/KT) (MB)    (FT)
BURNS HARBOR     1540   48     240/ 20/ 25 1001.4R
MICHIGAN CITY    1530   47     230/ 24/ 27   N/A
5NW MICH CITY    1550   47 48                N/A     6

$$

INZ004-005-014>016-021>024-271700-
NORTH CENTRAL INDIANA

CITY           SKY/WX    TMP DP  RH WIND       PRES   REMARKS
ELKHART        CLOUDY    52  45  76 SW20G25   29.56R
GOSHEN         CLOUDY    53  43  68 SW22G29   29.57R
SOUTH BEND     CLOUDY    51  43  74 SW18G33   29.57R
WARSAW +       CLOUDY    50  43  76 SW16G26   29.59R

$$

INZ006>009-017-018-025>027-271700-
NORTHEAST INDIANA

CITY           SKY/WX    TMP DP  RH WIND       PRES   REMARKS
ANGOLA *+      CLOUDY    63  54  72 SW23G32   29.52R
FORT WAYNE     PTSUNNY   59  49  69 SW24G35   29.57R
KENDALLVILLE + CLOUDY    58  49  70 SW26G36   29.56R

$$

INZ028-029-035-036-043>045-051>053-271700-
WEST CENTRAL INDIANA

CITY           SKY/WX    TMP DP  RH WIND       PRES   REMARKS
CRAWFORDSVL +  CLOUDY    47  47 100 SW16G22   29.67R
GREENCASTLE +  CLOUDY    52  43  71 W10G17    29.68R
LAFAYETTE      CLOUDY    49  43  80 W10G21    29.64R
TERRE HAUTE    CLOUDY    51  43  74 W16       29.69R

$$

INZ030>032-037>040-046>048-054>057-064-065-271700-
CENTRAL INDIANA

CITY           SKY/WX    TMP DP  RH WIND       PRES   REMARKS
CP ATTERBURY + CLOUDY    54  46  76 W15G22    29.68R
FRANKFORT +    CLOUDY    52  47  82 W21G29    29.66R
GREENWOOD *+   CLOUDY    56  46  67 W13G24    29.66R
INDIANAPOLIS   CLOUDY    54  47  77 W15       29.66R
-EAGLE CREEK   CLOUDY    53  46  77 W16G23    29.65R
KOKOMO +       CLOUDY    52  45  77 SW24      29.64R
SHELBYVILLE    CLOUDY    60  48  64 W17G24    29.64R

$$

INZ033-034-041-042-049-050-058-059-271700-
EAST CENTRAL INDIANA

CITY           SKY/WX    TMP DP  RH WIND       PRES   REMARKS
MUNCIE         CLOUDY    58  51  78 W20       29.61R
RICHMOND +     CLOUDY    63  59  88 SW14G22   29.62R

$$

INZ060-061-067>069-081>083-085>088-271700-
SOUTHWEST INDIANA

CITY           SKY/WX    TMP DP  RH WIND       PRES   REMARKS
EVANSVILLE     CLOUDY    56  46  69 W12G18    29.75R
HUNTINGBURG *+ CLOUDY    53  48  83 W14G22    29.74R
WASHINGTON +   CLOUDY    54  45  71 W14G20    29.72R

$$

INZ062-063-066-070>080-084-089>092-271700-
SOUTH CENTRAL AND SOUTHEAST INDIANA

CITY           SKY/WX    TMP DP  RH WIND       PRES   REMARKS
BLOOMINGTON    CLOUDY    54  45  71 W12       29.69R
MADISON *+     CLOUDY    63  54  72 SW16G22   29.68R
SEYMOUR +      CLOUDY    59  50  72 W21G28    29.68R

$$





USA.gov is the U.S. government's official web portal to all federal, state and local government web resources and services.